{"data":{"norad_id":59680,"intl_designator":"2024-085D","name":"2024-085D","alt_names":[],"object_type":"PAYLOAD","status":"ACTIVE","operator":null,"country":"PRC","launch_date":"2024-05-07","launch_site_code":"TAISC","launch_vehicle":null,"mission":null,"orbit_class":"UNKNOWN","rcs_meters":null,"size_class":null,"mass_kg":null,"dimensions":null,"purposes":[],"wikipedia_slug":null,"has_3d_model":false,"image_url":null,"decayed_at":null,"tle_current":{"epoch":"2026-05-25T04:33:41.947776Z","epoch_age_seconds":61768,"freshness":"FRESH","line1":"1 59680U 24085D   26145.19006884  .00011524  00000+0  33830-3 0  9993","line2":"2 59680  97.3245 221.0935 0014840 134.5490 225.6968 15.35199709114132","mean_motion":15.35199709,"eccentricity":0.001484,"inclination_deg":97.3245,"raan_deg":221.0935,"arg_perigee_deg":134.549,"mean_anomaly_deg":225.6968,"bstar":0.0003383,"rev_number":11413,"period_min":93.798871349317,"perigee_km":450.17908726967,"apogee_km":470.47564951506,"semimajor_km":6838.4643683924,"source":"CELESTRAK","updated_at":"2026-05-25T13:38:01.560325Z"}}}